Flag for USA

Past Weather in Olive Branch, Mississippi, USA — Yesterday and Last 2 Weeks

Now
86 °F

Sunny.


Feels Like: 86 °F
Forecast: 84 / 62 °F
Wind: 12 mph from North

Location: Olive Branch Airport

Current Time: Aug 6, 2020 at 5:11:47 pm

Latest Report: Aug 6, 2020 at 3:50 pm


Visibility: 10 mi

Pressure: 30.03 "Hg

Humidity: 43%

Dew Point: 61 °F

Location of Olive BranchLocation

Past Weather in Olive Branch — Graph

°F

Olive Branch Temperature Yesterday

Maximum temperature yesterday: 82 °F (at 1:50 pm)
Minimum temperature yesterday: 61 °F (at 4:35 am)
Average temperature yesterday: 69 °F

High & Low Weather Summary for the Past Weeks

 TemperatureHumidityPressure
High93 °F (Jul 24, 4:50 pm)100% (Jul 23, 3:55 am)30.15 "Hg (Jul 23, 3:55 am)
Low61 °F (Aug 5, 4:35 am)42% (Aug 5, 1:50 pm)29.78 "Hg (Aug 1, 3:15 am)
Average76 °F88%29.99 "Hg
* Reported Jul 22 3:50 pm — Aug 6 3:50 pm, Olive Branch. Weather by CustomWeather, © 2020

Note: Actual official high and low records may vary slightly from our data, if they occured in-between our weather recording intervals... More about our weather records

Olive Branch Weather History for the Previous 24 Hours

Scroll right to see more
 ConditionsComfort  
Time TempWeatherWind HumidityBarometerVisibility
3:50 pm
Thu, Aug 6
86 °FSunny.12 mph43%30.03 "Hg10 mi
2:50 pm86 °FPassing clouds.9 mph46%30.05 "Hg10 mi
1:50 pm84 °FScattered clouds.8 mph45%30.06 "Hg10 mi
12:50 pm84 °FScattered clouds.13 mph48%30.07 "Hg10 mi
11:50 am82 °FScattered clouds.8 mph55%30.09 "Hg10 mi
10:50 am81 °FPassing clouds.6 mph62%30.08 "Hg10 mi
9:50 am77 °FPassing clouds.6 mph65%30.08 "Hg10 mi
8:50 am73 °FPassing clouds.5 mph74%30.08 "Hg10 mi
7:50 am70 °FSunny.6 mph83%30.07 "Hg10 mi
6:50 am64 °FSunny.5 mph94%30.05 "Hg10 mi
6:35 am63 °FSunny.5 mph100%30.05 "Hg10 mi
6:15 am63 °FSunny.5 mph100%30.05 "Hg10 mi
5:55 am63 °FSunny.5 mph94%30.05 "Hg10 mi
5:35 am63 °FSunny.5 mph100%30.04 "Hg10 mi
5:15 am63 °FSunny.5 mph100%30.04 "Hg10 mi
4:55 am63 °FMild.5 mph100%30.03 "Hg10 mi
4:35 am63 °FMild.5 mph100%30.04 "Hg10 mi
4:15 am64 °FMild.6 mph94%30.04 "Hg10 mi
3:55 am63 °FClear.5 mph100%30.04 "Hg10 mi
3:35 am64 °FMild.5 mph94%30.04 "Hg10 mi
3:15 am64 °FClear.5 mph94%30.04 "Hg10 mi
2:35 am64 °FClear.5 mph94%30.03 "Hg10 mi
2:15 am64 °FClear.3 mph94%30.03 "Hg10 mi
1:55 am66 °FClear.6 mph88%30.03 "Hg10 mi
1:35 am66 °FClear.5 mph88%30.03 "Hg10 mi
1:15 am66 °FClear.5 mph88%30.04 "Hg10 mi
12:55 am66 °FMild.5 mph88%30.04 "Hg10 mi
12:35 am68 °FClear.6 mph83%30.04 "Hg10 mi
12:15 am68 °FClear.6 mph83%30.04 "Hg10 mi
11:55 pm
Wed, Aug 5
68 °FMild.6 mph83%30.04 "Hg10 mi
11:35 pm66 °FMild.6 mph88%30.04 "Hg10 mi
11:15 pm68 °FClear.5 mph83%30.04 "Hg10 mi
10:55 pm66 °FClear.5 mph88%30.04 "Hg10 mi
10:35 pm68 °FClear.5 mph78%30.04 "Hg10 mi
10:15 pm68 °FClear.No wind78%30.03 "Hg10 mi
9:55 pm68 °FMild.3 mph83%30.03 "Hg10 mi
9:35 pm68 °FClear.No wind78%30.03 "Hg10 mi
9:15 pm70 °FClear.No wind73%30.02 "Hg10 mi
8:55 pm70 °FMild.3 mph73%30.02 "Hg10 mi
7:50 pm75 °FPassing clouds.6 mph57%30.01 "Hg10 mi
6:50 pm79 °FPassing clouds.6 mph48%30.00 "Hg10 mi
5:50 pm81 °FPassing clouds.8 mph42%30.01 "Hg10 mi
Weather by CustomWeather, © 2020

See weather overview